EW9302 Weather Reports


time (UTC)temp
C
wind
direction
speed
KPH
gust
KPH
rain 1hr
cm
rain 24hr
cm
rain mn
cm
humidity
%
barometer
mb
20260509131529 10 206 0.0 12.9 0.00 0.00 0.00 51 1011.5
20260509130055 9 181 3.2 9.7 0.00 0.00 0.00 55 1011.6
20260509124551 8 188 0.0 14.5 0.00 0.00 0.00 54 1011.8
20260509123046 8 186 0.0 8.0 0.00 0.00 0.00 58 1011.8
20260509121540 7 178 0.0 0.0 0.00 0.00 0.00 66 1011.9
20260509120042 7 178 0.0 0.0 0.00 0.00 0.00 69 1012.0
20260509114532 6 178 0.0 0.0 0.00 0.00 0.00 69 1011.9
20260509113025 5 178 0.0 0.0 0.00 0.00 0.00 71 1012.0
20260509111521 5 178 0.0 0.0 0.00 0.00 0.00 73 1011.9
20260509110017 3 178 0.0 0.0 0.00 0.00 0.00 76 1012.0
20260509104522 2 178 0.0 0.0 0.00 0.00 0.00 78 1011.9
20260509103008 2 178 0.0 0.0 0.00 0.00 0.00 78 1011.7
20260509101505 1 178 0.0 6.4 0.00 0.00 0.00 77 1011.5
20260509100004 1 180 0.0 0.0 0.00 0.00 0.00 77 1011.3
20260509094559 1 265 0.0 0.0 0.00 0.00 0.00 76 1011.2
20260509093041 1 265 0.0 0.0 0.00 0.00 0.00 77 1010.9
20260509091527 0 265 0.0 0.0 0.00 0.00 0.00 77 1010.9
20260509090024 0 265 0.0 0.0 0.00 0.00 0.00 78 1010.8
20260509084533 0 266 0.0 0.0 0.00 0.00 0.00 78 1010.6
20260509083022 0 265 0.0 0.0 0.00 0.00 0.00 78 1010.7
20260509081533 0 265 0.0 0.0 0.00 0.00 0.00 76 1010.9
20260509080028 1 266 0.0 0.0 0.00 0.00 0.00 74 1010.8
20260509074512 1 266 0.0 0.0 0.00 0.00 0.00 73 1010.9
20260509073010 1 265 0.0 0.0 0.00 0.00 0.00 72 1010.9
20260509071509 1 266 0.0 0.0 0.00 0.00 0.00 71 1010.9
20260509070008 2 266 0.0 0.0 0.00 0.00 0.00 68 1010.9
20260509064509 2 265 0.0 0.0 0.00 0.00 0.00 69 1010.9
20260509063100 2 265 0.0 0.0 0.00 0.00 0.00 70 1010.9
20260509061558 2 266 0.0 0.0 0.00 0.00 0.00 72 1010.9
20260509060056 1 265 0.0 0.0 0.00 0.00 0.00 73 1010.8
20260509054558 1 265 0.0 0.0 0.00 0.00 0.00 74 1010.8
20260509053058 1 265 0.0 0.0 0.00 0.00 0.00 73 1010.7
20260509051558 2 265 0.0 0.0 0.00 0.00 0.00 72 1010.8
20260509050050 2 266 0.0 0.0 0.00 0.00 0.00 73 1010.7
20260509044545 2 265 0.0 0.0 0.00 0.00 0.00 73 1010.7
20260509043044 2 266 0.0 0.0 0.00 0.00 0.00 72 1010.7
20260509041543 2 265 0.0 0.0 0.00 0.00 0.00 73 1010.6
20260509040043 2 265 0.0 0.0 0.00 0.00 0.00 73 1010.5
20260509034543 2 266 0.0 0.0 0.00 0.00 0.00 72 1010.4
20260509033036 2 265 0.0 0.0 0.00 0.00 0.00 72 1010.2
20260509031535 3 265 0.0 0.0 0.00 0.00 0.00 70 1010.2
20260509030035 3 266 0.0 0.0 0.00 0.00 0.00 70 1010.1
20260509024504 3 266 0.0 0.0 0.00 0.00 0.00 70 1010.1
20260509023003 3 265 0.0 0.0 0.00 0.00 0.00 68 1010.1
20260509021601 3 265 0.0 0.0 0.00 0.00 0.00 68 1010.0
20260509020058 3 266 0.0 0.0 0.00 0.00 0.00 70 1009.9
20260509014556 3 265 0.0 0.0 0.00 0.00 0.00 69 1009.8
20260509013105 4 265 0.0 0.0 0.00 0.00 0.00 66 1009.6
20260509011552 4 266 0.0 0.0 0.00 0.00 0.00 63 1009.5
20260509010050 5 266 0.0 0.0 0.00 0.00 0.00 62 1009.3
20260509004548 5 266 0.0 0.0 0.00 0.00 0.00 60 1009.1
20260509003046 5 266 0.0 0.0 0.00 0.00 0.00 61 1009.0
20260509001543 6 265 0.0 0.0 0.00 0.00 0.00 60 1008.9
20260509000043 6 266 0.0 0.0 0.00 0.00 0.00 59 1008.9
20260508234540 6 266 0.0 0.0 0.00 0.00 0.00 58 1008.7
20260508233049 6 266 0.0 0.0 0.00 0.00 0.00 55 1008.6
20260508231538 6 265 0.0 0.0 0.00 0.00 0.00 55 1008.5
20260508230040 7 266 0.0 0.0 0.00 0.00 0.00 54 1008.5
20260508224534 7 265 0.0 0.0 0.00 0.00 0.00 56 1008.4
20260508223034 7 269 0.0 0.0 0.00 0.00 0.00 53 1008.3
20260508221601 8 269 0.0 0.0 0.00 0.00 0.00 51 1008.2
20260508220059 7 272 0.0 0.0 0.00 0.00 0.00 56 1008.2
20260508214556 7 292 0.0 0.0 0.00 0.00 0.00 54 1008.1
20260508213054 7 292 1.6 12.9 0.00 0.00 0.00 55 1008.1
20260508211551 7 217 0.0 0.0 0.00 0.00 0.00 60 1008.0
20260508210051 7 282 0.0 0.0 0.00 0.00 0.00 59 1008.0
20260508204551 7 275 0.0 0.0 0.00 0.00 0.00 60 1007.9
20260508203053 6 275 0.0 0.0 0.00 0.00 0.00 60 1007.9
20260508201545 7 281 0.0 1.6 0.00 0.00 0.00 59 1007.7
20260508200051 6 275 0.0 4.8 0.00 0.00 0.00 58 1007.7
20260508194540 6 282 0.0 6.4 0.00 0.00 0.00 56 1007.7
20260508193037 6 282 0.0 1.6 0.00 0.00 0.00 57 1007.7
20260508191538 7 285 0.0 0.0 0.00 0.00 0.00 58 1007.6
20260508190032 6 282 0.0 1.6 0.00 0.00 0.00 58 1007.6
20260508184533 6 279 0.0 20.9 0.00 0.00 0.00 58 1007.7
20260508183015 6 276 1.6 14.5 0.00 0.00 0.00 56 1007.5
20260508181512 7 292 0.0 1.6 0.00 0.00 0.00 54 1007.5
20260508180010 7 280 0.0 1.6 0.00 0.00 0.00 60 1007.5
20260508173010 6 283 0.0 0.0 0.00 0.00 0.00 66 1007.7
20260508171522 5 273 0.0 0.0 0.00 0.00 0.00 66 1007.8
20260508170009 5 286 0.0 0.0 0.00 0.00 0.00 66 1007.8
20260508163006 6 288 1.6 17.7 0.00 0.00 0.00 62 1007.6
20260508161507 7 244 0.0 4.8 0.00 0.00 0.00 62 1007.6
20260508160011 6 289 1.6 20.9 0.00 0.00 0.00 59 1007.5
20260508154502 6 277 0.0 4.8 0.00 0.00 0.00 66 1007.5
20260508153003 6 238 0.0 0.0 0.00 0.00 0.00 72 1007.6
20260508150036 5 279 0.0 0.0 0.00 0.00 0.00 73 1007.7
20260508144535 6 271 0.0 6.4 0.00 0.00 0.00 70 1007.5
20260508143005 6 292 0.0 4.8 0.00 0.00 0.00 69 1007.3
20260508141505 6 283 0.0 4.8 0.00 0.00 0.00 71 1007.3
20260508140103 6 279 0.0 3.2 0.00 0.00 0.00 71 1007.3
20260508134555 5 273 0.0 9.7 0.00 0.00 0.00 73 1007.5
20260508133056 5 275 0.0 0.0 0.00 0.00 0.00 76 1007.5